Regional Weather Roundup
Issued by NWS Upton, NY

Current Version | Previous Version | Graphics & Text | Print | Product List | Glossary Off
Versions: 1 2 3 4 5 6 7 8 9 10 11 12 13 14 15 16 17 18 19 20 21 22 23 24 25 26 27 28 29 30 31 32 33 34 35 36 37 38 39 40 41 42 43 44 45 46 47 48 49 50

000
ASUS41 KOKX 020005
RWROKX

REGIONAL WEATHER ROUNDUP
NATIONAL WEATHER SERVICE NEW YORK NY
800 PM EDT FRI AUG 01 2014

NOTE: "FAIR" INDICATES FEW OR NO CLOUDS BELOW 12,000 FEET WITH NO
SIGNIFICANT WEATHER AND/OR OBSTRUCTIONS TO VISIBILITY.

NYZ071-072-176-178-NJZ106-104-020100-
NEW YORK CITY METRO AREA


CITY           SKY/WX    TMP DP  RH WIND       PRES   REMARKS
CENTRAL PARK   CLOUDY    75  65  70 VRB7      30.21S
LAGUARDIA APRT CLOUDY    76  64  66 S12       30.18S
KENNEDY INTL   CLOUDY    75  68  78 S8        30.19F
NEWARK/LIBERTY CLOUDY    75  68  78 S5        30.18S
BRNX BOT. GARD   N/A     73  63  68 S5        30.20R
TETERBORO      CLOUDY    77  66  68 S3        30.17S
$$

NYZ177-179-078>081-020100-
LONG ISLAND NEW YORK

CITY           SKY/WX    TMP DP  RH WIND       PRES   REMARKS
FARMINGDALE    CLOUDY    73  65  75 S7        30.19F
ISLIP          CLOUDY    75  63  66 S5        30.18F
SHIRLEY        CLOUDY    73  66  78 CALM      30.21S
WESTHAMPTON    CLOUDY    73  67  81 CALM      30.22S
MONTAUK POINT    N/A     73  69  87 SE5       30.22F
$$

NYZ052-065-067-020100-
HUDSON VALLEY

CITY           SKY/WX    TMP DP  RH WIND       PRES   REMARKS
WHITE PLAINS   CLOUDY    72  66  81 SE3       30.20R
NEWBURGH       MOCLDY    70  64  83 CALM      30.22
MONTGOMERY     CLOUDY    71  65  81 CALM      30.20S
POUGHKEEPSIE   CLOUDY    71  68  90 CALM      30.19R
ALBANY         CLOUDY    75  61  61 S15       30.16R
$$

NJZ001-105-106-008-010-013-015-019>022-104-020100-
NEW JERSEY

CITY           SKY/WX    TMP DP  RH WIND       PRES   REMARKS
NEWARK/LIBERTY CLOUDY    75  68  78 S5        30.18S
TETERBORO      CLOUDY    77  66  68 S3        30.17S
CALDWELL       CLOUDY    71  67  87 W3        30.20S
MORRISTOWN     CLOUDY    72  68  88 CALM      30.19F
SOMERVILLE     CLOUDY    72  68  87 CALM      30.18R
LINDEN         CLOUDY    78  72  80 CALM      30.20S
SUSSEX         CLOUDY    74  62  66 SW3       30.20R
ANDOVER          N/A     70  64  81 CALM      30.21R
TRENTON        CLOUDY    70  66  87 CALM      30.18F
MILLVILLE      CLOUDY    72  68  87 E3        30.18S
ATLANTIC CITY  CLOUDY    70  67  90 E3        30.18F
WRIGHTSTOWN    CLOUDY    73  72  99 SE2       30.16F
TOMS RIVER     CLOUDY    72  70  94 CALM      30.19F
BELMAR         CLOUDY    72  64  78 SE5       30.19S
$$

PAZ047>061-062-071-020100-
EASTERN PENNSYLVANIA

CITY           SKY/WX    TMP DP  RH WIND       PRES   REMARKS
PHILADELPHIA   CLOUDY    74  68  81 E5        30.19S
ALLENTOWN      CLOUDY    68  63  84 CALM      30.19F
SCRANTON       CLOUDY    72  61  68 SW7       30.19R
$$

CTZ002-004>006-009-010-012-RIZ004-006-007-MAZ004-011-015-020100-
SOUTHERN NEW ENGLAND
 IN CT

CITY           SKY/WX    TMP DP  RH WIND       PRES   REMARKS
BRADLEY INTL   CLOUDY    71  63  75 S5        30.19F
HARTFORD       CLOUDY    75  65  70 S7        30.20S
DANBURY        CLOUDY    73  65  75 SE3       30.22R
WTRBRY/OXFORD  CLEAR     72  64  78 S6        30.24S
BRIDGEPORT     CLOUDY    74  68  81 S3        30.20S
MERIDEN        CLOUDY    74  65  73 S7        30.21S
NEW HAVEN      CLOUDY    76  68  76 CALM      30.21S
CHESTER        FAIR      72  68  88 CALM      30.23S
GROTON         CLOUDY    70  69  97 CALM      30.22S
WILLIMANTIC    CLOUDY    74  66  76 S3        30.23R

 IN RI

CITY           SKY/WX    TMP DP  RH WIND       PRES   REMARKS
PROVIDENCE     CLOUDY    73  63  70 S5        30.24S
BLOCK ISLAND   CLOUDY    72  66  83 S5        30.22F
WESTERLY       CLOUDY    73  67  81 SW3       30.23S

 IN MA

CITY           SKY/WX    TMP DP  RH WIND       PRES   REMARKS
BOSTON         CLOUDY    74  64  71 S9        30.22
WORCESTER      CLOUDY    70  64  81 S10       30.26R
WESTFIELD      LGT RAIN  67  65  93 CALM      30.20S
PROVINCETOWN   CLOUDY    70  64  83 CALM      30.25R
NANTUCKET      MOCLDY    66  61  84 SE5       30.24S
$$

ANZ330-335-338-340-345-350-353-355-020100-
COASTAL MARINE OBSERVATIONS


STATION/POSITION TIME  SKY/WX   TEMP    WIND        PRES    VSBY  WAVE
                                AIR SEA DIR/SP/G                  HT/PER
                 (UTC)          (F)     (DEG/KT/KT) (MB)    (MI)  (FT/S)
NY HARB ENTRANCE NOT AVBL
4S FIRE IS       NOT AVBL
23SW MTP         0000            71 70              1022.5          3/ 8
HUDSON CANYON    0000            75 75  100/  6/  8 1022.1          3/ 7
EXECUTION ROCKS  0000            74 70  210/  6/  8   N/A
WESTERN LI SOUND 0000            74     180/  8/ 10   N/A           0
CENTRAL LI SOUND 2300            74 73  190/  6/  8   N/A           1/ 2
EASTERN LI SOUND 2300            70 67  240/  4/  6   N/A
ROBBINS REEF     0000            73     160/ 10/ 11   N/A
$$


>>>>>>>>>>>>>>>>>>>>>>>>>>>> KEY <<<<<<<<<<<<<<<<<<<<<<<<<<<
>                                                          <
>     SKY/WX - SKY CONDITION/PRESENT WEATHER               <
>     TMP    - TEMPERATURE IN FAHRENHEIT                   <
>     DP     - DEWPOINT IN FAHRENHEIT                      <
>     RH     - RELATIVE HUMIDITY IN PERCENT                <
>     WIND   - DIRECTION AND SPEED IN MPH                  <
>     PRES   - MEAN SEA LEVEL PRESSURE IN INCHES OF HG     <
>     WCI    - WIND CHILL INDEX                            <
>     VSB    - VISIBILITY IN MILES                         <
>     HX     - HEAT INDEX                                  <
>     TC     - TEMPERATURE IN CELSIUS                      <
>     VRB    - VARIABLE WIND DIRECTION                     <
>                                                          <
>>>>>>>>>>>>>>>>>>>>>>>>>>>> KEY <<<<<<<<<<<<<<<<<<<<<<<<<<<




USA.gov is the U.S. government's official web portal to all federal, state and local government web resources and services.